Regional Weather Roundup
Issued by NWS Little Rock, AR

Home | Current Version | Previous Version | Text Only | Print | Product List | Glossary Off
Versions: 1 2 3 4 5 6 7 8 9 10 11 12 13 14 15 16 17 18 19 20 21 22 23 24 25 26 27

000
ASUS44 KLZK 301405
RWRLZK

WEATHER ROUNDUP FOR ARKANSAS
NATIONAL WEATHER SERVICE LITTLE ROCK AR
900 AM CDT TUE AUG 30 2016

NOTE: "FAIR" INDICATES FEW OR NO CLOUDS BELOW 12,000 FEET WITH NO
SIGNIFICANT WEATHER AND/OR OBSTRUCTIONS TO VISIBILITY.

ARZ001-003-010-029-301500-
NORTHWEST ARKANSAS

CITY           SKY/WX    TMP DP  RH WIND       PRES   REMARKS
FAYETTEVILLE   SUNNY     71  71 100 CALM      30.16S
FORT SMITH     SUNNY     79  73  82 E5        30.10S
HARRISON       MOSUNNY   75  71  87 CALM      30.17R
BENTONVILLE    SUNNY     79  68  69 E3        30.17R
ROGERS         SUNNY     77  71  82 E6        30.17S
SILOAM SPGS    SUNNY     77  64  65 E5        30.14R
HIGHFILL       SUNNY     78  73  84 NE3       30.16S
SPRINGDALE     SUNNY     77  72  83 E3        30.18S
$$

ARZ004-005-016-301500-
NORTH CENTRAL ARKANSAS

CITY           SKY/WX    TMP DP  RH WIND       PRES   REMARKS
BATESVILLE     SUNNY     81  73  78 CALM      30.11F HX  85
FLIPPIN        SUNNY     75  72  88 CALM      30.12R
MTN HOME       SUNNY     78  74  87 SE5       30.13S
$$

ARZ040-041-301500-
WEST CENTRAL ARKANSAS

CITY           SKY/WX    TMP DP  RH WIND       PRES   REMARKS
MENA           SUNNY     79  77  94 CALM      30.12S
MOUNT IDA      SUNNY     79  74  84 CALM      30.07F
$$

ARZ009-017-025-026-028-301500-
NORTHEAST ARKANSAS

CITY           SKY/WX    TMP DP  RH WIND       PRES   REMARKS
JONESBORO      MOSUNNY   83  76  79 NE7       30.09S HX  91
NEWPORT        MOSUNNY   80  77  90 NE7       30.10S HX  87
WALNUT RIDGE   MOSUNNY   79  73  83 N6        30.10S
BLYTHEVILLE    SUNNY     83  77  82 NE3       30.09F HX  92
NW BLYTHEVILLE SUNNY     81  75  83 N3        30.09S HX  86
$$

ARZ022-023-033-042-044-301500-
CENTRAL ARKANSAS

CITY           SKY/WX    TMP DP  RH WIND       PRES   REMARKS
LITTLE ROCK    MOSUNNY   84  75  74 NE6       30.07F HX  92
N LITTLE ROCK    N/A     82  76  83 E6        30.04F HX  89
JACKSONVILLE   SUNNY     83  77  83 CALM      30.07F HX  92
SEARCY         SUNNY     82  77  84 NE7       30.10S HX  90
HOT SPRINGS    SUNNY     82  74  76 NE6       30.07F HX  88
RUSSELLVILLE   SUNNY     79  74  84 CALM      30.09S
$$

ARZ036-301500-
EAST ARKANSAS

CITY           SKY/WX    TMP DP  RH WIND       PRES   REMARKS
WEST MEMPHIS   MOSUNNY   82  75  79 NE6       30.07S HX  89
$$

ARZ050-053-066-070-073-301500-
SOUTHWEST ARKANSAS

CITY           SKY/WX    TMP DP  RH WIND       PRES   REMARKS
ARKADELPHIA    FAIR      80  76  87 NE5       30.06S HX  86
TEXARKANA      SUNNY     78  74  87 NE7       30.05R
EL DORADO      MOSUNNY   79  74  84 NE5       30.04S
DE QUEEN       SUNNY     83  77  82 NE3       30.04S HX  92
$$

ARZ056-057-069-301500-
SOUTHEAST ARKANSAS

CITY           SKY/WX    TMP DP  RH WIND       PRES   REMARKS
PINE BLUFF     SUNNY     80  75  84 N7        30.06S HX  85
STUTTGART      SUNNY     81  75  83 N8        30.07R HX  86
MONTICELLO     SUNNY     84  75  74 VRB5      30.04S HX  92

$$






USA.gov is the U.S. government's official web portal to all federal, state and local government web resources and services.